TimePDT,TemperatureF,Dew PointF,Humidity,Sea Level PressureIn,VisibilityMPH,Wind Direction,Wind SpeedMPH,Gust SpeedMPH,PrecipitationIn,Events,Conditions,WindDirDegrees,DateUTC
12:56 AM,69.1,30.0,23,29.93,10.0,SW,5.8,-,N/A,,Clear,220,2013-08-06 07:56:00
1:56 AM,66.9,30.9,26,29.93,10.0,WSW,8.1,-,N/A,,Clear,240,2013-08-06 08:56:00
2:56 AM,70.0,33.1,26,29.92,10.0,SW,3.5,-,N/A,,Clear,230,2013-08-06 09:56:00
3:56 AM,64.0,33.1,31,29.93,10.0,SSE,3.5,-,N/A,,Clear,160,2013-08-06 10:56:00
4:56 AM,62.1,32.0,32,29.93,10.0,South,6.9,-,N/A,,Clear,170,2013-08-06 11:56:00
5:56 AM,61.0,30.9,32,29.94,10.0,SSE,8.1,-,N/A,,Clear,160,2013-08-06 12:56:00
6:19 AM,60.8,30.2,31,30.03,10.0,South,6.9,-,N/A,,Scattered Clouds,170,2013-08-06 13:19:00
6:56 AM,61.0,30.0,31,29.96,10.0,South,4.6,-,N/A,,Scattered Clouds,180,2013-08-06 13:56:00
7:56 AM,73.9,34.0,23,29.97,10.0,WSW,5.8,-,N/A,,Scattered Clouds,240,2013-08-06 14:56:00
8:56 AM,79.0,37.9,23,29.97,10.0,West,8.1,-,N/A,,Scattered Clouds,280,2013-08-06 15:56:00
9:56 AM,82.9,37.0,19,29.96,10.0,West,5.8,-,N/A,,Scattered Clouds,280,2013-08-06 16:56:00
10:56 AM,86.0,36.0,17,29.96,10.0,Variable,3.5,-,N/A,,Scattered Clouds,0,2013-08-06 17:56:00
11:56 AM,89.1,25.0,10,29.95,10.0,NW,8.1,-,N/A,,Scattered Clouds,320,2013-08-06 18:56:00
12:56 PM,91.9,24.1,9,29.93,10.0,North,6.9,-,N/A,,Scattered Clouds,350,2013-08-06 19:56:00
1:56 PM,93.9,21.9,7,29.91,10.0,Variable,4.6,-,N/A,,Scattered Clouds,0,2013-08-06 20:56:00
2:56 PM,93.9,23.0,8,29.88,10.0,SW,8.1,-,N/A,,Scattered Clouds,230,2013-08-06 21:56:00
3:56 PM,95.0,21.9,7,29.86,10.0,Variable,4.6,-,N/A,,Scattered Clouds,0,2013-08-06 22:56:00
4:56 PM,96.1,19.9,6,29.84,10.0,Calm,Calm,-,N/A,,Scattered Clouds,0,2013-08-06 23:56:00
5:56 PM,95.0,23.0,8,29.83,10.0,West,4.6,-,N/A,,Scattered Clouds,260,2013-08-07 00:56:00
6:56 PM,91.9,21.0,8,29.81,10.0,WNW,5.8,-,N/A,,Mostly Cloudy,290,2013-08-07 01:56:00
7:56 PM,86.0,30.0,13,29.82,10.0,West,10.4,-,N/A,,Mostly Cloudy,280,2013-08-07 02:56:00
8:56 PM,84.0,32.0,15,29.83,10.0,West,8.1,-,N/A,,Scattered Clouds,280,2013-08-07 03:56:00
9:56 PM,78.1,33.1,19,29.85,10.0,West,6.9,-,N/A,,Scattered Clouds,270,2013-08-07 04:56:00
10:56 PM,73.0,33.1,23,29.87,10.0,SSW,4.6,-,N/A,,Scattered Clouds,200,2013-08-07 05:56:00
11:56 PM,75.9,39.0,26,29.89,10.0,WSW,6.9,-,N/A,,Clear,250,2013-08-07 06:56:00